Normandy Park, Washington, United States
Lat: 47.44N, Lon: 122.34W
Wx Zone: WAZ508
Local Info
Past Weather Observations for Today

NOTE: This archive is for the closest National Weather Service station to Normandy Park. Information may differ from the station used for current weather conditions.

Click here for Long-term Archive

Time Weather Temperature Dewpoint Humidity Pressure Winds Precip Visibility
16:53
Mostly Cloudy
54°F / 12°C 46°F / 8°C 77% 29.86 in
(1011 mb)
SE 3.5 mph
(SE 6 kph)
- 10SM
14:53
Mostly Cloudy
54°F / 12°C 48°F / 9°C 82% 29.83 in
(1010 mb)
S 8.1 mph
(S 13 kph)
- 10SM
13:53
Mostly Cloudy
54°F / 12°C 46°F / 8°C 77% 29.83 in
(1010 mb)
SW 10.4 mph
(SW 17 kph)
- 10SM
12:53
Mostly Cloudy
54°F / 12°C 48°F / 9°C 82% 29.83 in
(1010 mb)
SSE 8.1 mph
(SSE 13 kph)
- 10SM
11:53
Overcast
52°F / 11°C 48°F / 9°C 88% 29.83 in
(1010 mb)
SW 6.9 mph
(SW 11 kph)
- 10SM
11:42
Overcast
52°F / 11°C 48°F / 9°C 88% 29.83 in
(1010 mb)
SSE 8.1 mph
(SSE 13 kph)
- 10SM
11:12
Overcast
52°F / 11°C 50°F / 10°C 94% 29.83 in
(1010 mb)
SW 6.9 mph
(SW 11 kph)
- 9SM
10:53
Overcast
52°F / 11°C 48°F / 9°C 88% 29.83 in
(1010 mb)
SW 5.8 mph
(SW 9 kph)
0.03 in
(0.76 mm)
8SM
09:53
Overcast
52°F / 11°C 48°F / 9°C 88% 29.8 in
(1009 mb)
S 5.8 mph
(S 9 kph)
0.09 in
(2.29 mm)
10SM
08:53
Overcast
Light Rain
52°F / 11°C 48°F / 9°C 88% 29.8 in
(1009 mb)
SW 3.5 mph
(SW 6 kph)
0.08 in
(2.03 mm)
3SM
08:35
Overcast
Light Rain
52°F / 11°C 48°F / 9°C 88% 29.77 in
(1008 mb)
WNW 3.5 mph
(WNW 6 kph)
0.06 in
(1.52 mm)
3SM
07:53
Overcast
Rain
52°F / 11°C 48°F / 9°C 88% 29.74 in
(1007 mb)
SSW 9.2 mph
(SSW 15 kph)
0.16 in
(4.06 mm)
1/2SM
06:53
Overcast
Rain
52°F / 11°C 48°F / 9°C 88% 29.71 in
(1006 mb)
SSW 5.8 mph
(SSW 9 kph)
0.07 in
(1.78 mm)
1/2SM
06:43
Overcast
Rain
52°F / 11°C 48°F / 9°C 88% 29.71 in
(1006 mb)
SSW 4.6 mph
(SSW 7 kph)
0.05 in
(1.27 mm)
1/2SM
05:53
Overcast
Light Rain
50°F / 10°C 48°F / 9°C 94% 29.71 in
(1006 mb)
WNW 3.5 mph
(WNW 6 kph)
0.04 in
(1.02 mm)
5SM
05:44
Overcast
Light Rain
50°F / 10°C 48°F / 9°C 94% 29.71 in
(1006 mb)
Calm 0.03 in
(0.76 mm)
5SM
04:53
Overcast
Light Rain
50°F / 10°C 48°F / 9°C 94% 29.71 in
(1006 mb)
NW 3.5 mph
(NW 6 kph)
0.02 in
(0.51 mm)
6SM
04:45
Overcast
Light Rain
50°F / 10°C 48°F / 9°C 94% 29.71 in
(1006 mb)
Calm 0.02 in
(0.51 mm)
7SM
03:53
Overcast
Light Rain
52°F / 11°C 48°F / 9°C 88% 29.71 in
(1006 mb)
Calm 0.01 in
(0.25 mm)
10SM
02:53
Overcast
52°F / 11°C 48°F / 9°C 88% 29.74 in
(1007 mb)
SSW 3.5 mph
(SSW 6 kph)
0.04 in
(1.02 mm)
7SM
01:53
Overcast
Light Rain
52°F / 11°C 50°F / 10°C 94% 29.77 in
(1008 mb)
Calm 0.03 in
(0.76 mm)
6SM
00:53
Overcast
Rain
52°F / 11°C 50°F / 10°C 94% 29.77 in
(1008 mb)
Calm 0.12 in
(3.05 mm)
6SM
Time Weather Temperature Dewpoint Humidity Pressure Winds Precip Visibility


Weather for websites

WeatherForYou.com, LLC is not responsible for any damages or problems caused by this service. Current weather conditions are obtained from the closest station including government and personal stations which may have varying degrees of accuracy. Weather forecasts are derived from the NOAA NDFD. Like all things, this site belongs to Jesus Christ... He just trusts me to maintain it. If you have any questions or comments email webmaster@weatherforyou.com

Copyright © 2014, WeatherForYou.com LLC. All rights reserved.